Regional Weather Roundup
Issued by NWS

Home | Current Version | Previous Version | Graphics & Text | Print | Product List | Glossary On
Versions: 1 2 3 4 5 6 7 8 9 10 11 12 13 14 15 16 17 18 19 20 21 22 23 24 25 26 27 28 29 30 31 32 33 34 35 36 37 38 39 40 41 42 43 44 45 46 47 48 49 50
000
ASUS43 KDMX 241707
RWRIA

WEATHER ROUNDUP FOR IOWA
NATIONAL WEATHER SERVICE DES MOINES IA
1100 AM CST WED DEC 24 2014

NOTE: "FAIR" INDICATES FEW OR NO CLOUDS BELOW 12,000 FEET WITH NO
SIGNIFICANT WEATHER AND/OR OBSTRUCTIONS TO VISIBILITY.

* - THESE STATIONS ARE NOT NWS STATIONS...THUS NOT UNDER NWS
QUALITY CONTROL.  THEY ALSO DO NOT REPORT WEATHER SUCH
AS PRECIPITATION OR FOG.

IAZ001>003-012>014-020>022-031>034-043>046-241800-
   NORTHWEST IOWA

CITY           SKY/WX    TMP DP  RH WIND       PRES   REMARKS
CARROLL *      CLOUDY    32  32 100 NW18      29.80F WCI  20
CHEROKEE *     CLOUDY    32  32 100 NW10      29.83F WCI  24
DENISON *      CLOUDY    32  32 100 NW13G18   29.81F WCI  22
LE MARS *      CLOUDY    30  28  93 NW12      29.85F WCI  21
ORANGE CITY *  CLOUDY    30  28  93 NW9       29.82F WCI  22
SHELDON *      CLOUDY    30  30 100 NW14      29.80F WCI  20
SIOUX CITY     CLOUDY    30  27  88 NW15      29.86F FOG     WCI  19
SPENCER        CLOUDY    33  28  81 NW10      29.80F WCI  25
STORM LAKE *   CLOUDY    32  30  93 NW13G21   29.80F WCI  22
$$

IAZ055>058-069>071-079>083-090>094-241800-
   SOUTHWEST IOWA

CITY           SKY/WX    TMP DP  RH WIND       PRES   REMARKS
ATLANTIC *     CLOUDY    34  32  93 NW13G18   29.82F WCI  25
AUDUBON *      MOSUNNY   34  27  75 NW13G18   29.81F WCI  25
CLARINDA *     CLOUDY    34  32  93 NW14G21   29.86F WCI  24
COUNCIL BLFS * CLOUDY    32  32 100 NW13G20   29.84F FOG     WCI  22
CRESTON *      CLOUDY    34  32  93 NW16      29.80S WCI  23
HARLAN  *      CLOUDY    32  32 100 NW14G20   29.86F WCI  22
LAMONI         CLOUDY    34  32  92 N13       29.78S WCI  25
RED OAK *      CLOUDY    34  32  93 NW10G17   29.85F WCI  26
SHENANDOAH *   CLOUDY    34  32  93 NW14G20   29.86F WCI  24
$$

IAZ047>049-059>061-072>074-084-241800-
   CENTRAL IOWA

CITY           SKY/WX    TMP DP  RH WIND       PRES   REMARKS
AMES           CLOUDY    34  31  88 NW14      29.76F WCI  25
ANKENY *       CLOUDY    34  32  93 NW10G18   29.76F WCI  26
CHARITON *     CLOUDY    36  34  93 NW15      29.75F WCI  26
DES MOINES     CLOUDY    35  32  88 NW14      29.77F WCI  26
GRINNELL*      CLOUDY    36  34  93 NW20      29.71F WCI  25
KNOXVILLE *    CLOUDY    36  32  87 NW15G23   29.73F WCI  26
MARSHALLTOWN   CLOUDY    34  32  92 NW14      29.71F WCI  25
PELLA *        CLOUDY    36  34  93 NW13      29.74F WCI  27
PERRY *        CLOUDY    34  32  93 NW15      29.79F WCI  24
$$

IAZ004>006-015-016-023>025-035-036-241800-
   NORTH CENTRAL IOWA

CITY           SKY/WX    TMP DP  RH WIND       PRES   REMARKS
ALGONA *       CLOUDY    32  32 100 NW15G22   29.77F WCI  22
CLARION *      MIX PCPN  32  32 100 NW15      29.75F WCI  22
ESTHERVILLE    CLOUDY    31  30  96 NW15      29.78F WCI  20
FORT DODGE *   CLOUDY    34  28  80 NW10      29.79S WCI  26
MASON CITY     CLOUDY    34  32  92 NW15      29.74F WCI  24
FOREST CITY *  CLOUDY    32  32 100 NW15      29.74F WCI  22
IOWA FALLS *   CLOUDY    34  32  93 NW12      29.73F WCI  25
$$

IAZ007>011-017>019-026>030-037>042-050>054-066-241800-
   NORTHEAST IOWA

CITY           SKY/WX    TMP DP  RH WIND       PRES   REMARKS
CEDAR RAPIDS   CLOUDY    35  33  92 NW14      29.66F WCI  26
CHARLES CITY * CLOUDY    34  34 100 NW14      29.70F WCI  24
CLINTON *      CLOUDY    36  32  87 NW9       29.65F WCI  29
DECORAH *      CLOUDY    34  32  93 N9        29.65F WCI  26
DUBUQUE        CLOUDY    34  32  92 N12       29.61F WCI  25
MONTICELLO *   CLOUDY    36  36 100 MISG      29.64F
OELWEIN *      CLOUDY    36  32  87 NW12      29.67F WCI  27
WATERLOO       LGT RAIN  36  33  89 NW14      29.69F WCI  27
$$

IAZ064-065-067-068-078-241800-
   EAST CENTRAL IOWA

CITY           SKY/WX    TMP DP  RH WIND       PRES   REMARKS
DAVENPORT      CLOUDY    35  32  88 NW9       29.64F WCI  28
IOWA CITY      CLOUDY    36  32  85 NW9       29.69F WCI  29
MT. PLEASANT * CLOUDY    36  34  93 NW10      29.69F WCI  28
MUSCATINE *    CLOUDY    37  34  87 NW8       29.68F WCI  31
QUAD CITIES    CLOUDY    36  33  89 NW8       29.64F WCI  30
$$

IAZ062-063-075>077-085>089-095>099-241800-
   SOUTHEAST IOWA

CITY           SKY/WX    TMP DP  RH WIND       PRES   REMARKS
BURLINGTON     CLOUDY    36  34  92 NW10      29.66F FOG     WCI  28
FAIRFIELD *    CLOUDY    36  32  87 NW15      29.70F WCI  26
FORT MADISON * CLOUDY    37  36  93 NW8       29.68F FOG     WCI  31
KEOKUK *       PTSUNNY   36  36 100 NW7       29.68F FOG     WCI  30
OSKALOOSA *    CLOUDY    36  32  87 NW15      29.71F WCI  26
CENTERVILLE *  CLOUDY    36  34  93 NW16      29.75S WCI  26
OTTUMWA        CLOUDY    37  34  89 NW17      29.70F WCI  27
WASHINGTON *   CLOUDY    36  36 100 NW13      29.68F WCI  27
$$

ABBREVIATIONS USED IN REMARKS
   TC - TEMPERATURES IN CELSIUS
  WCI - WIND CHILL INDEX
   HX - HEAT INDEX
  VSB - VISIBILITY
$$




USA.gov is the U.S. government's official web portal to all federal, state and local government web resources and services.